Regional Weather Roundup
Issued by NWS Charleston, SC

Current Version | Previous Version | Text Only | Print | Product List | Glossary Off
Versions: 1 2 3 4 5 6 7 8 9 10 11 12 13 14 15 16 17 18 19 20 21 22 23 24 25 26 27 28 29 30 31 32 33 34 35 36 37 38 39 40 41 42 43 44 45 46 47 48 49 50

000
ASUS42 KCHS 282327
RWRCHS

REGIONAL WEATHER ROUNDUP
NATIONAL WEATHER SERVICE CHARLESTON SC
700 PM EDT TUE JUL 28 2015

NOTE: "FAIR" INDICATES FEW OR NO CLOUDS BELOW 12,000 FEET WITH NO
SIGNIFICANT WEATHER AND/OR OBSTRUCTIONS TO VISIBILITY.

NOT ALL STATIONS ARE QUALITY CONTROLLED BY THE NATIONAL
WEATHER SERVICE. USE DATA WITH CAUTION...ESPECIALLY
DEWPOINT OBSERVATIONS.

SCZ027-030-031-034>040-042>050-290000-
...SOUTHEAST SOUTH CAROLINA...

CITY           SKY/WX    TMP DP  RH WIND       PRES   REMARKS
N CHARLESTON   PTSUNNY   85  71  63 SE12      29.94S HX  90
WATERFRONT PRK   N/A     85  77  76 E12       29.92S HX  95
MOUNT PLEASANT LGT RAIN  84  73  70 CALM      29.95R HX  91
JOHNS ISLAND   FAIR      84  75  74 E9G15     29.95R HX  92
PINOPOLIS      NOT AVBL
MONCKS CORNER  FAIR      86  66  51 CALM      29.95R
SUMMERVILLE    FAIR      88  72  58 CALM      29.95R HX  94
BEAUFORT MCAS  MOSUNNY   86  71  60 E10       29.94S HX  91
BEAUFORT ARPT  FAIR      82  73  74 E9        29.94R
HILTON HEAD IS MOSUNNY   84  79  84 NE7       29.95S HX  96
WALTERBORO     PTCLDY    90  72  55 E6        29.94R HX  96
ALLENDALE      FAIR      88  79  74 CALM      29.92S HX 102

...SOUTHERN MIDLANDS AND PEE DEE...

CITY           SKY/WX    TMP DP  RH WIND       PRES   REMARKS
GEORGETOWN     NOT AVBL
KINGSTREE      NOT AVBL
ORANGEBURG     PTSUNNY   91  67  44 CALM      29.94R HX  94
BARNWELL       FAIR      88  79  74 CALM      29.94S HX 102
AIKEN          CLOUDY    84  68  58 CALM      29.99S
MANNING        FAIR      86  68  54 CALM      29.94S
COLUMBIA       CLOUDY    88  72  58 NE3       29.94R HX  94
SUMTER         PTSUNNY   87  72  61 NW7       29.92S HX  93
FLORENCE       PTSUNNY   90  67  46 E7        29.93S HX  93
MYRTLE BEACH   SUNNY     84  70  61 E9        29.98S
N MYRTLE BEACH SUNNY     84  71  65 E10       29.95F

$$

GAZ063-065-086>088-099>101-113>116-118-119-134>141-150-290000-
...SOUTHEAST GEORGIA...

CITY           SKY/WX    TMP DP  RH WIND       PRES   REMARKS
SAVANNAH ARPT  PTSUNNY   86  72  62 SE10      29.94R HX  92
HUNTER AAF     MOSUNNY   85  77  78 E10       29.92R HX  95
FORT STEWART   MOSUNNY   88  74  62 E10       29.91R HX  96
STATESBORO     PTSUNNY   90  78  67 CALM      29.93R HX 103
SYLVANIA       MOCLDY    91  77  62 CALM      29.94R HX 104
CLAXTON        FAIR      88  75  66 CALM      29.93R HX  97

...CSRA...CENTRAL AND FAR SOUTHEAST GEORGIA...

CITY           SKY/WX    TMP DP  RH WIND       PRES   REMARKS
THOMSON        PTSUNNY   82  80  94 E6        29.99S HX  93
AUGUSTA-BUSH   PTSUNNY   92  70  48 SE8       29.92S HX  97
AUGUSTA-DANIEL PTSUNNY   92  69  47 SE10      29.94S HX  97
SWAINSBORO     FAIR      88  77  70 CALM      29.95R HX 100
VIDALIA        TSTM      81  72  74 E9G17     29.91F VSB 1
EASTMAN        FAIR      93  73  52 CALM      29.94F HX 102
HAZLEHURST     FAIR      93  74  53 CALM      29.92R HX 102
ALMA           MOSUNNY   93  73  52 CALM      29.91S HX 102
WAYCROSS       MOSUNNY   92  79  65 E9        29.92R HX 110
JESUP          FAIR      90  70  51 E5        29.94R HX  95
BAXLEY         FAIR      93  72  49 CALM      29.92R HX 100
BRUNSWICK      MOSUNNY   86  77  74 NE10      29.94R HX  97
SAINT SIMONS   SUNNY     84  76  76 NE10      29.92F HX  93

$$

SCZ027-028-034-036>038-045-046-048>050-GAZ119-141-290000-
...LAKE AND SUPPLEMENTAL COASTAL OBSERVATIONS...

STATION/POSITION TIME  TEMP    WIND        PRES    WAVE   SWELL
                       AIR SEA DIR/SP/G            HT/PER HT/PER/DIR
                 (UTC) (F)     (DEG/KT/KT) (MB)    (FT/S) (FT/S/D)
UPR LAKE MARION  NOT AVBL
WINYAH BAY       2245   83      90/ 10     1013.0F
LAKE MURRAY      2200   86     100/  4/  9 1013.5R
ACE BASIN NERRS  2200   86     130/  5     1014.0
FORT PULASKI     2300   83 86   90/ 12/ 14 1014.4S
SAPELO ISLAND    2300   85      70/  9     1013.0F

$$

ANZ835-935-AMZ111-154-330-350-352-354-370-450-454-472-290000-
...C-MAN AND BUOY OBSERVATIONS...

STATION/POSITION TIME  TEMP    WIND        PRES    WAVE   SWELL
                       AIR SEA DIR/SP/G            HT/PER HT/PER/DIR
                 (UTC) (F)     (DEG/KT/KT) (MB)    (FT/S) (FT/S/D)
BUOY 41004       2250   84 85   60/ 10/ 12 1013.2S   3/ 6   3/ 6
BUOY 41008       2250   82 82   60/ 12/ 14 1013.2F   2/ 4   2/140/ 6
FOLLY BEACH CMAN 2300   82      80/ 12/ 13 1014.2S
CAPERS NEARSHORE NOT AVBL
FRIPP NEARSHORE  NOT AVBL


STATION/POSITION TIME  TEMP    WIND        PRES    WAVE   SWELL
                       AIR SEA DIR/SP/G            HT/PER HT/PER/DIR
                 (UTC) (F)     (DEG/KT/KT) (MB)    (FT/S) (FT/S/D)
5E ST. MARYS GA  2221      82                N/A     2/ 5
FRYING PAN BUOY  2250   84 84   70/ 12/ 14 1014.0F   5/ 6   3/120/ 6
BUOY 41025       NOT AVBL
CAPE LOOKOUT NC  2300   81      90/  9/ 10 1014.4F
BUOY 41002       2250   81 82  220/ 19/ 21 1013.4F   8/ 7   2/120/11
BUOY 41010       2220   85 84  190/ 14/ 17 1013.9F
ST AUGUSTINE FL  2300   81 82  360/  8/  9 1013.7F


$$



USA.gov is the U.S. government's official web portal to all federal, state and local government web resources and services.